Regional Weather Roundup
Issued by NWS

Home | Current Version | Previous Version | Graphics & Text | Print | Product List | Glossary Off
Versions: 1 2 3 4 5 6 7 8 9 10 11 12 13 14 15 16 17 18 19 20 21 22 23 24 25 26 27 28 29 30 31 32 33 34 35 36 37 38 39 40 41 42 43 44 45 46 47 48 49 50

000
ASUS43 KTOP 270008
RWRKS

WEATHER ROUNDUP FOR KANSAS
NATIONAL WEATHER SERVICE GOODLAND KS
700 PM CDT SUN MAR 26 2017

NOTE:  "FAIR" INDICATES FEW OR NO CLOUDS BELOW 12,000 FEET WITH NO
SIGNIFICANT WEATHER AND/OR OBSTRUCTIONS TO VISIBILITY.

KSZ001>006-013>018-027>032-041>047-270100-
NORTHWEST KANSAS

CITY           SKY/WX    TMP DP  RH WIND       PRES   REMARKS
GOODLAND       CLOUDY    47  43  86 E5        29.90R
6HR MIN TEMP:  44; 6HR MAX TEMP:  47; 6HR PCP:  0.05;

HAYS             N/A     46  44  93 NE9       29.90R
HILL CITY      CLOUDY    47  45  93 CALM      29.91R
6HR MIN TEMP:  45; 6HR MAX TEMP:  47; 6HR PCP:  0.04;

RUSSELL        CLOUDY    46  45  96 NE7       29.88R
6HR MIN TEMP:  46; 6HR MAX TEMP:  51; 6HR PCP:  0.07;

$$

KSZ061>065-074>080-084>089-270100-
SOUTHWEST KANSAS

CITY           SKY/WX    TMP DP  RH WIND       PRES   REMARKS
DODGE CITY     CLOUDY    47  43  86 N17       29.83R
6HR MIN TEMP:  44; 6HR MAX TEMP:  53; 6HR PCP: TRACE;

ELKHART          N/A     44  31  60 NW17        N/A
GARDEN CITY    CLOUDY    44  43  96 N14       29.88R FOG
6HR MIN TEMP:  42; 6HR MAX TEMP:  47;

GREAT BEND     LGT RAIN  47  44  90 NE15      29.86S
LIBERAL        CLOUDY    48  37  66 NW15      29.87R
PRATT          CLOUDY    46  42  86 NE20G28   29.79R THUNDER
6HR MIN TEMP:  46; 6HR MAX TEMP:  54;

$$

KSZ066>073-081>083-090>101-270100-
SOUTHEAST KANSAS

CITY           SKY/WX    TMP DP  RH WIND       PRES   REMARKS
CHANUTE        LGT RAIN  59  51  75 NE10      29.81F
6HR MIN TEMP:  52; 6HR MAX TEMP:  65; 6HR PCP:  0.01;

COFFEYVILLE    LGT RAIN  62  53  72 NE7       29.80R
6HR MIN TEMP:  59; 6HR MAX TEMP:  69; 6HR PCP: TRACE;

HUTCHINSON     CLOUDY    51  48  89 N15G23    29.83R
6HR MIN TEMP:  50; 6HR MAX TEMP:  56; 6HR PCP:  0.03;

MEDICINE LODGE   N/A     54  46  74 N23G30    29.72R
NEWTON         PTCLDY    50  48  93 NE10      29.84F
PARSONS        LGT RAIN  62  52  69 NE6       29.82F
6HR MIN TEMP:  57; 6HR MAX TEMP:  67; 6HR PCP:  0.01;

WICHITA INTL   CLOUDY    54  49  83 NE15      29.78F
6HR MIN TEMP:  53; 6HR MAX TEMP:  61; 6HR PCP:  0.23;

WICHITA JABRA  CLOUDY    53  49  86 NE14G22   29.80F
6HR MIN TEMP:  51; 6HR MAX TEMP:  59; 6HR PCP:  0.09;

WICHITA MCCONL CLOUDY    54  49  83 NE17      29.78F
WINFIELD       CLOUDY    65  50  58 E10       29.74S
6HR MIN TEMP:  61; 6HR MAX TEMP:  67; 6HR PCP:  0.03;

$$

KSZ007>012-019>026-033>040-048>060-102>105-270100-
NORTHEAST KANSAS

CITY           SKY/WX    TMP DP  RH WIND       PRES   REMARKS
CONCORDIA      RAIN      47  46  97 E7        29.93R
6HR MIN TEMP:  47; 6HR MAX TEMP:  51; 6HR PCP:  0.12;

EMPORIA        RAIN      50  50 100 NE8       29.88R FOG
6HR MIN TEMP:  48; 6HR MAX TEMP:  56; 6HR PCP:  0.14;

LAWRENCE       CLOUDY    53  45  74 CALM      29.93R
6HR MIN TEMP:  50; 6HR MAX TEMP:  55;

MANHATTAN      LGT RAIN  49  47  93 NE7       29.93S FOG
6HR MIN TEMP:  49; 6HR MAX TEMP:  53; 6HR PCP:  0.12;

MARYSVILLE     CLOUDY    48  45  87 CALM      29.96R
OLATHE IND     CLOUDY    52  45  77 S6        29.93R
6HR MIN TEMP:  49; 6HR MAX TEMP:  53;

OLATHE EXE     CLOUDY    52  45  77 CALM      29.91R
6HR MIN TEMP:  48; 6HR MAX TEMP:  52;

SALINA         LGT RAIN  50  47  89 N10       29.89F FOG
6HR MIN TEMP:  49; 6HR MAX TEMP:  54; 6HR PCP:  0.25;

TOPEKA BILLARD CLOUDY    51  46  83 CALM      29.93R
6HR MIN TEMP:  50; 6HR MAX TEMP:  53; 6HR PCP: TRACE;

TOPEKA FORBES  CLOUDY    53  46  77 NE5       29.91R
6HR MIN TEMP:  50; 6HR MAX TEMP:  56; 6HR PCP: TRACE;

$$




USA.gov is the U.S. government's official web portal to all federal, state and local government web resources and services.